SL-4 R/B (45477 NORAD) Tracking and Keplerian Element Data

This shows tracking and keplerian element data for the satellite.

Feedback or suggestion? Click here.




ElementValue
Catalog45477
NameSL-4 R/B
Epoch Orbit57
Epoch Day103.82108581
Epoch Year2020
RAAN309.8615
Inclination51.6454
Eccentricity0.0002509
Argument of Perigee150.3265
Mean Anonmoly210.5181
Mean Motion16.48711581
Decay Rate0.17186927
L11 45477U 20023B 20103.82108581 .17186927 12607-4 25144-3 0 9993
L22 45477 51.6454 309.8615 0002509 150.3265 210.5181 16.48711581 576

Live tracking and technical data element details for SL-4 R/B (NORAD 45477). SL-4 R/B can be tracked NOW for your location showing map with azimuth and elevation plus other details from your city location.

Track the satellite on the map from your city or location and see movement details for azimuth, elevation, latitude, longitude, range, height, and movement on the map or in text.







IsCatalogInMostPopularTable: catalog: 45477, numindb: 14
Update: records affected: 1



GetName: 45477 SL-4 R/B

Hit Count: updated at: Sat, 30 May 2020 15:25:07 GMT